Time,TemperatureF,DewpointF,PressureIn,WindDirection,WindDirectionDegrees,WindSpeedMPH,WindSpeedGustMPH,Humidity,HourlyPrecipIn,Conditions,Clouds,dailyrainin,SoftwareType,DateUTC
2016-09-29 00:05:00,53.0,53.0,-100.00,NW,320,1.0,2.0,99,-99.99,,,-99.99,,2016-09-29 04:05:00,
2016-09-29 00:15:00,53.0,53.0,-100.00,WSW,255,1.0,4.0,99,-99.99,,,-99.99,,2016-09-29 04:15:00,
2016-09-29 00:37:00,53.0,53.0,-100.00,West,270,2.0,4.0,99,-99.99,,,-99.99,,2016-09-29 04:37:00,
2016-09-29 00:48:00,53.0,52.0,-100.00,North,-9999,-999.9,-999.0,99,-99.99,,,-99.99,,2016-09-29 04:48:00,
2016-09-29 01:21:00,52.0,52.0,-100.00,West,275,2.0,4.0,99,-99.99,,,-99.99,,2016-09-29 05:21:00,
2016-09-29 01:55:00,52.0,51.0,-100.00,West,275,1.0,2.0,98,-99.99,,,-99.99,,2016-09-29 05:55:00,
2016-09-29 02:07:00,52.0,51.0,-100.00,West,280,2.0,4.0,98,-99.99,,,-99.99,,2016-09-29 06:07:00,
2016-09-29 02:15:00,51.0,51.0,-100.00,WSW,250,1.0,2.0,98,-99.99,,,-99.99,,2016-09-29 06:15:00,
2016-09-29 02:36:00,52.0,51.0,-100.00,SW,220,1.0,2.0,98,-99.99,,,-99.99,,2016-09-29 06:36:00,
2016-09-29 02:48:00,52.0,51.0,-100.00,WSW,240,1.0,2.0,98,-99.99,,,-99.99,,2016-09-29 06:48:00,
2016-09-29 02:55:00,51.0,51.0,-100.00,SSW,200,2.0,4.0,98,-99.99,,,-99.99,,2016-09-29 06:55:00,
2016-09-29 03:07:00,51.0,51.0,-100.00,WSW,245,2.0,2.0,97,-99.99,,,-99.99,,2016-09-29 07:07:00,
2016-09-29 03:15:00,51.0,51.0,-100.00,SW,225,1.0,2.0,98,-99.99,,,-99.99,,2016-09-29 07:15:00,
2016-09-29 03:38:00,51.0,51.0,-100.00,SSE,150,1.0,2.0,98,-99.99,,,-99.99,,2016-09-29 07:38:00,
2016-09-29 03:45:00,51.0,51.0,-100.00,SW,235,1.0,2.0,98,-99.99,,,-99.99,,2016-09-29 07:45:00,
2016-09-29 04:04:00,51.0,51.0,-100.00,SW,225,0.0,2.0,98,-99.99,,,-99.99,,2016-09-29 08:04:00,
2016-09-29 04:13:00,51.0,51.0,-100.00,SW,215,1.0,-999.0,98,-99.99,,,-99.99,,2016-09-29 08:13:00,
2016-09-29 04:34:00,51.0,51.0,-100.00,WSW,255,1.0,1.0,98,-99.99,,,-99.99,,2016-09-29 08:34:00,
2016-09-29 04:44:00,51.0,51.0,-100.00,WNW,285,1.0,2.0,98,-99.99,,,-99.99,,2016-09-29 08:44:00,
2016-09-29 04:54:00,51.0,51.0,-100.00,WNW,300,2.0,2.0,98,-99.99,,,-99.99,,2016-09-29 08:54:00,
2016-09-29 05:04:00,51.0,51.0,-100.00,WNW,290,2.0,2.0,98,-99.99,,,-99.99,,2016-09-29 09:04:00,
2016-09-29 05:13:00,51.0,51.0,-100.00,WNW,285,1.0,2.0,98,-99.99,,,-99.99,,2016-09-29 09:13:00,
2016-09-29 05:45:00,51.0,51.0,-100.00,WNW,300,1.0,2.0,99,-99.99,,,-99.99,,2016-09-29 09:45:00,
2016-09-29 06:05:00,51.0,51.0,-100.00,SW,235,1.0,2.0,99,-99.99,,,-99.99,,2016-09-29 10:05:00,
2016-09-29 06:14:00,51.0,51.0,-100.00,WSW,245,2.0,2.0,99,-99.99,,,-99.99,,2016-09-29 10:14:00,
2016-09-29 06:33:00,51.0,51.0,-100.00,WSW,255,-999.9,-999.0,99,-99.99,,,-99.99,,2016-09-29 10:33:00,
2016-09-29 06:48:00,51.0,51.0,-100.00,SW,235,2.0,3.0,99,-99.99,,,-99.99,,2016-09-29 10:48:00,
2016-09-29 07:07:00,51.0,51.0,-100.00,SW,215,1.0,-999.0,99,-99.99,,,-99.99,,2016-09-29 11:07:00,
2016-09-29 07:36:00,50.0,49.0,-100.00,SW,220,1.0,-999.0,97,-99.99,,,-99.99,,2016-09-29 11:36:00,
2016-09-29 07:48:00,51.0,50.0,-100.00,SSE,155,1.0,2.0,97,-99.99,,,-99.99,,2016-09-29 11:48:00,
2016-09-29 07:55:00,51.0,50.0,-100.00,SSW,200,1.0,1.0,97,-99.99,,,-99.99,,2016-09-29 11:55:00,
2016-09-29 08:07:00,51.0,50.0,-100.00,SSW,195,-999.9,-999.0,97,-99.99,,,-99.99,,2016-09-29 12:07:00,
2016-09-29 08:17:00,51.0,50.0,-100.00,SSE,155,1.0,1.0,97,-99.99,,,-99.99,,2016-09-29 12:17:00,
2016-09-29 08:35:00,50.0,49.0,-100.00,WSW,250,2.0,3.0,96,-99.99,,,-99.99,,2016-09-29 12:35:00,
2016-09-29 08:49:00,50.0,49.0,-100.00,WSW,245,2.0,3.0,96,-99.99,,,-99.99,,2016-09-29 12:49:00,
2016-09-29 08:55:00,50.0,49.0,-100.00,SSW,200,1.0,3.0,96,-99.99,,,-99.99,,2016-09-29 12:55:00,
2016-09-29 09:08:00,50.0,49.0,-100.00,SW,225,0.0,-999.0,95,-99.99,,,-99.99,,2016-09-29 13:08:00,
2016-09-29 09:15:00,51.0,49.0,-100.00,SSW,195,0.0,1.0,95,-99.99,,,-99.99,,2016-09-29 13:15:00,
2016-09-29 09:55:00,51.0,50.0,-100.00,North,350,1.0,2.0,95,-99.99,,,-99.99,,2016-09-29 13:55:00,
2016-09-29 10:04:00,51.0,50.0,-100.00,ENE,75,1.0,2.0,96,-99.99,,,-99.99,,2016-09-29 14:04:00,
2016-09-29 10:13:00,52.0,49.0,-100.00,North,350,1.0,1.0,92,-99.99,,,-99.99,,2016-09-29 14:13:00,
2016-09-29 10:34:00,52.0,50.0,-100.00,NE,50,1.0,1.0,93,-99.99,,,-99.99,,2016-09-29 14:34:00,
2016-09-29 10:46:00,52.0,50.0,-100.00,NE,45,1.0,2.0,92,-99.99,,,-99.99,,2016-09-29 14:46:00,
2016-09-29 10:54:00,53.0,51.0,-100.00,NE,40,1.0,2.0,94,-99.99,,,-99.99,,2016-09-29 14:54:00,
2016-09-29 11:04:00,53.0,51.0,-100.00,NNW,345,1.0,2.0,94,-99.99,,,-99.99,,2016-09-29 15:04:00,
2016-09-29 11:13:00,53.0,51.0,-100.00,NNE,30,1.0,2.0,92,-99.99,,,-99.99,,2016-09-29 15:13:00,
2016-09-29 11:24:00,53.0,51.0,-100.00,North,355,1.0,2.0,91,-99.99,,,-99.99,,2016-09-29 15:24:00,
2016-09-29 12:14:00,54.0,52.0,-100.00,NNW,340,0.0,-999.0,92,-99.99,,,-99.99,,2016-09-29 16:14:00,
2016-09-29 12:57:00,56.0,53.0,-100.00,SE,140,1.0,-999.0,91,-99.99,,,-99.99,,2016-09-29 16:57:00,
2016-09-29 13:15:00,56.0,53.0,-100.00,WSW,240,1.0,-999.0,91,-99.99,,,-99.99,,2016-09-29 17:15:00,
2016-09-29 13:38:00,56.0,54.0,-100.00,NNE,30,2.0,3.0,91,-99.99,,,-99.99,,2016-09-29 17:38:00,